Regional Weather Roundup
Issued by NWS

Home | Current Version | Previous Version | Graphics & Text | Print | Product List | Glossary On
Versions: 1 2 3 4 5 6 7 8 9 10 11 12 13 14 15 16 17 18 19 20 21 22 23 24 25 26 27 28 29 30 31 32 33 34 35 36 37 38 39 40 41 42 43 44 45 46 47 48 49 50
000
ASUS44 KMEG 012210
RWRTN
TENNESSEE HOURLY STATE WEATHER ROUNDUP
NATIONAL WEATHER SERVICE MEMPHIS TN
500 PM CDT MON SEP 01 2014

TNZ002-004-019-021-049-052-054-088>092-012300-
WEST TENNESSEE

CITY           SKY/WX    TMP DP  RH WIND       PRES   REMARKS
MEMPHIS INTL   MOSUNNY   90  70  51 SW14G24   29.96F HX  95
NWS MEMPHIS      N/A     92 N/A N/A MISG        N/A
JACKSON        MOSUNNY   89  71  55 SW10      29.96F HX  95
DYERSBURG      PTSUNNY   90  66  45 SW9G17    29.95S HX  92
UNION CITY     SUNNY     84  73  70 S9        29.92S HX  91
PARIS          SUNNY     86  72  62 SW10      29.96S HX  92
HUNTINGDON     SUNNY     86  71  60 S9        29.96F HX  91
LEXINGTON      SUNNY     90  70  51 S14       29.97F HX  95
SAVANNAH       SUNNY     90  70  51 SW10      30.00S HX  95
$$

TNZ008-025-027-028-033-062-065-066-012300-
NORTH MIDDLE TENNESSEE

CITY           SKY/WX    TMP DP  RH WIND       PRES   REMARKS
NASHVILLE      PTSUNNY   90  68  48 SW9G16    29.99F HX  94
DICKSON        MOSUNNY   88  70  55 SW12      30.00F HX  92
PORTLAND       PTSUNNY   88  70  55 SW14      29.98F HX  92
CLARKSVILLE    PTSUNNY   85  72  65 S13G21    29.94F HX  91
LEBANON        MOSUNNY   88  68  51 SW9       29.99F HX  91
SMYRNA         MOSUNNY   90  68  48 SW12      30.00F HX  94
MURFREESBORO   MOSUNNY   91  64  40 SW12      30.00F HX  92
COOKEVILLE     SUNNY     90  72  55 SW7       30.04S HX  96
LIVINGSTON     MOSUNNY   84  65  52 SW8       30.06
GALLATIN       MOSUNNY   90  70  51 SW8       30.00F HX  95
CROSSVILLE     MOSUNNY   84  66  54 VRB6      30.11S
$$

TNZ061-075-076-078-094-096-097-012300-
SOUTH MIDDLE TENNESSEE

CITY           SKY/WX    TMP DP  RH WIND       PRES   REMARKS
LEWISBURG      MOSUNNY   91  68  46 S7        30.02F HX  95
FAYETTEVILLE   SUNNY     88  66  48 SW6       30.05S HX  90
TULLAHOMA      SUNNY     88  66  48 S10       30.06F HX  90
WINCHESTER     SUNNY     90  70  51 SW9       30.06S HX  95
MCMINNVILLE    SUNNY     90  70  51 SW8       30.05S HX  95
COLUMBIA         N/A     90  70  51 S13       30.00S HX  95
SHELBYVILLE    SUNNY     91  68  46 SW10      30.04S HX  95
$$

TNZ017-018-042-046-047-012300-
NORTHEAST TENNESSEE

CITY           SKY/WX    TMP DP  RH WIND       PRES   REMARKS
TRI CITIES     MOSUNNY   88  64  44 W7        30.08F
ELIZABETHTON   CLEAR     84  64  51 W3        30.09S
$$

TNZ012-013-036-069-073-074-012300-
CENTRAL EAST TENNESSEE

CITY           SKY/WX    TMP DP  RH WIND       PRES   REMARKS
KNOXVILLE      MOSUNNY   88  70  55 SW14      30.04S HX  93
OAK RIDGE      SUNNY     91  70  49 S9        30.06S HX  96
GATLINBURG     CLEAR     90  66  45 SW13      30.05S HX  92
MORRISTOWN     CLEAR     88  70  55 SW9       30.08S HX  92
$$

TNZ083-085-099-012300-
SOUTHEAST TENNESSEE

CITY           SKY/WX    TMP DP  RH WIND       PRES   REMARKS
CHATTANOOGA    MOSUNNY   92  67  43 SW12      30.04F HX  95
$$

SKY/WX REPORTED AS FAIR MEANS FEW OR NO CLOUDS BELOW
12 THOUSAND FEET.



USA.gov is the U.S. government's official web portal to all federal, state and local government web resources and services.